"Pseudo-MPEC" for P110O5l

Created 2020 May 25 15:07:19 UT using Find_Orb

Click here for an explanation of pseudo-MPECs

 
 Astrometry: 
     P110O5l  C2020 05 23vK^!dh6j=,=d05+mJJXNC`Cw1Fq1GGEAstrometryCr*x7Lh'CuyF51
     P110O5l  C2020 05 23b+4mR8q0f;J085VcG#0F]*RtVAUpT!i/-[qAu231Bw2ya2Sx=+rMF51
     P110O5l  C2020 05 23N'v\CQredacted;%R^a3Uc.+OvKs($4:W3W_+w3click2sJVKOb/F51
     P110O5l  C2020 05 24.20273 14 22 54.30 -20 36 04.8    ~5O57 19.5 GVNEOCPI52
     P110O5l  C2020 05 24.20377 14 22 55.29 -20 36 01.8    ~5O57 19.4 GVNEOCPI52
     P110O5l  C2020 05 24.20480 14 22 56.23 -20 35 58.8    ~5O57 19.9 GVNEOCPI52
     P110O5l  C2020 05 24.20583 14 22 57.19 -20 35 55.7    ~5O57 19.9 GVNEOCPI52
     P110O5l ^C2020 05 24.36472514 25 34.576-20 27 32.13   ~5O9b 19.76GVNEOCP568
     P110O5l ^C2020 05 24.36579714 25 35.592-20 27 28.81   ~5O9b 19.81GVNEOCP568
     P110O5l ^C2020 05 24.36674514 25 36.485-20 27 25.86   ~5O9b 19.76GVNEOCP568
     P110O5l ^C2020 05 24.36769614 25 37.384-20 27 22.93   ~5O9b 19.80GVNEOCP568
     P110O5l hC2020 05 246O?y^JNZ@S-HWhereuh.N_nY\[EU+U[jforKmcK+gS?aac%-0SlXL01
     P110O5l hC2020 05 24f(:2]yg4_b`-%ellr2SY8xnu_%OQ7oYQ'p+Ih?bP%IUD!=N.v@$NL01
     P110O5l KC2020 05 24.94777 14 35 33.08 -19 56 32.5    ~5ONM 19.0 GUNEOCPI93
     P110O5l KC2020 05 24.95198 14 35 37.38 -19 56 19.2    ~5ONM 19.1 GUNEOCPI93
     P110O5l KC2020 05 24.95619 14 35 41.52 -19 56 04.4    ~5ONM 19.5 GUNEOCPI93
     P110O5l KC2020 05 2453n)+xQ7ZHB]j;yAAIPee,\m:3g?aVsuJmexplanation0TE!hGCX31
     P110O5l KC2020 05 24.99141614 36 17.38 -19 54 07.2    ~5P0q 19.5 GVNEOCPJ95
     P110O5l KC2020 05 24K78K2YN=ymI5`cH'\0^U_b1RLfQMTxJZjc_Vv3suBe@`3GBC_R(HX31
     P110O5l KC2020 05 25.00264614 36 28.66 -19 53 26.4    ~5P0q 20.0 GVNEOCPJ95
     P110O5l  C2020 05 25.17122 14 39 33.24 -19 43 09.4    ~5P4M 19.5 GVNEOCPI52
     P110O5l  C2020 05 25.17186 14 39 33.83 -19 43 07.6    ~5P4M 20.1 GVNEOCPI52
     P110O5l  C2020 05 25.17249 14 39 34.48 -19 43 05.5    ~5P4M 20.7 GVNEOCPI52
     P110O5l  C2020 05 25.17313 14 39 35.14 -19 43 03.4    ~5P4M 19.3 GVNEOCPI52

Station data:
(568) Mauna Kea  (N19.826116 W155.472200)  US/Hawaii.
(F51) Pan-STARRS 1, Haleakala  (N20.707235 W156.255910)  US/Hawaii.
   Observers N. Primak, A. Schultz, S. Watters, J. Thiel, T. Goggia. Measurer
   PS1 Science Consortium. 1.8-m Ritchey-Chrétien + CCD.
(I52) Steward Observatory, Mt. Lemmon Station  (N32.442547 W110.788920)
   US/Arizona.  Observers T. A. Pruyne, B. M. Africano, E. J. Christensen, G.
   A. Farneth, D. C. Fuls, A. R. Gibbs, A. D. Grauer, H. Gröller, J. A.
   Johnson, R. A. Kowalski, S. M. Larson, G. J. Leonard, D. Rankin, R. L.
   Seaman, F. C. Shelly. 1.0-m reflector + CCD.
(I93) St Pardon de Conques  (N44.558710 W0.203000)  France.  Observer F.
   Losse. 0.40-m f/3.7 reflector + CCD.
(J95) Great Shefford  (N51.474969 W1.447003)  UK.  Observer P. Birtwhistle.
   0.40-m f/6.0 Schmidt-Cassegrain + CCD.
(L01) Višnjan Observatory, Tičan  (N45.290900 E13.749300)  Croatia.
   Observers K. Korlević, E. Pettarin. Measurer E. Pettarin. 1.0-m f/2.9
   reflector + CCD.
(X31) Galileo Galilei Observatory, Oro Verde  (S31.823022 W60.520660)
   Argentina.

Orbital elements:  P110O5l
   Perihelion 2020 May 29.012529 +/- 0.013 TT =  0:18:02 (JD 2458998.512529)
Epoch 2020 May 25.0 TT = JDT 2458994.5   Earth MOID: 0.0530   Ju: 0.4048
M 359.17902195 +/- 0.0057           (J2000 ecliptic)          AutoNEOCP
n   0.20460365 +/- 0.00158          Peri.    2.48236 +/- 0.015
a   2.85229068 +/- 0.0147           Node   244.93944 +/- 0.0018
e   0.6261862 +/- 0.00188           Incl.    6.43664 +/- 0.012
P   4.82                   H 25.1   G  0.15   U  8.4  
q 1.06622558 +/- 0.00013    Q 4.63835579 +/- 0.0293
From 24 observations 2020 May 23-25 (44.8 hr); mean residual 0".52
Residuals in arcseconds: 
200523 F51  .08-  .14+    200524 568  .03+  .11-    200524 X31  .82-  .35+    
200523 F51  .17+  .08+    200524 568  .03-  .09-    200524 J95  .66+  .18-    
200523 F51  .18-  .06+    200524 568  .04-  .11-    200524 X31  .17+  .41+    
200524 I52  .28+  .07-    200524 L01  .53+  .16-    200525 J95  .37-  .94+    
200524 I52  .41+  .12-    200524 L01  1.2-  1.1-    200525 I52  .44+  .27-    
200524 I52  .02-  .15-    200524 I93  .85-  .23-    200525 I52  .36-  .68-    
200524 I52  .18-  .07-    200524 I93  .44+  1.5-    200525 I52  .17-  .75-    
200524 568  .01+  .11-    200524 I93  .54-  1.3-    200525 I52  .02+  .87-    

Ephemerides (geocentric):
Date (UTC) HH   RA              Dec         delta   r     elong  mag " sig PA
---- -- -- --  -------------   -----------  ------ ------ -----  --- ---- ---
2020 05 25 15  14 47 36.895   -19 13 07.81  .05725 1.0672 160.5 19.9 .298 176
2020 05 25 16  14 48 22.289   -19 10 26.44  .05717 1.0671 160.6 19.9 .298 175
2020 05 25 17  14 49 07.784   -19 07 43.96  .05710 1.0671 160.7 19.9 .298 174
2020 05 25 18  14 49 53.378   -19 05 00.37  .05702 1.0671 160.9 19.9 .298 173
2020 05 25 19  14 50 39.071   -19 02 15.68  .05695 1.0671 161.0 19.9 .298 172
2020 05 25 20  14 51 24.862   -18 59 29.87  .05688 1.0670 161.1 19.9 .298 171
2020 05 25 21  14 52 10.750   -18 56 42.96  .05681 1.0670 161.3 19.9 .298 170
2020 05 25 22  14 52 56.734   -18 53 54.93  .05674 1.0670 161.4 19.9 .298 169
2020 05 25 23  14 53 42.814   -18 51 05.80  .05667 1.0670 161.5 19.9 .298 168
2020 05 26 00  14 54 28.988   -18 48 15.55  .05660 1.0670 161.7 19.9 .298 166
2020 05 26 01  14 55 15.256   -18 45 24.19  .05653 1.0669 161.8 19.9 .299 165
2020 05 26 02  14 56 01.617   -18 42 31.71  .05646 1.0669 161.9 19.9 .299 164
2020 05 26 03  14 56 48.070   -18 39 38.12  .05639 1.0669 162.0 19.9 .300 162
2020 05 26 04  14 57 34.613   -18 36 43.42  .05632 1.0669 162.2 19.9 .301 161
2020 05 26 05  14 58 21.247   -18 33 47.61  .05626 1.0669 162.3 19.8 .302 160
2020 05 26 06  14 59 07.969   -18 30 50.68  .05619 1.0668 162.4 19.8 .303 158
2020 05 26 07  14 59 54.780   -18 27 52.64  .05613 1.0668 162.6 19.8 .304 157
2020 05 26 08  15 00 41.677   -18 24 53.48  .05606 1.0668 162.7 19.8 .306 155
2020 05 26 09  15 01 28.661   -18 21 53.22  .05600 1.0668 162.8 19.8 .307 153
2020 05 26 10  15 02 15.730   -18 18 51.84  .05593 1.0668 163.0 19.8 .309 152
2020 05 26 11  15 03 02.883   -18 15 49.35  .05587 1.0668 163.1 19.8 .312 150
2020 05 26 12  15 03 50.119   -18 12 45.75  .05581 1.0667 163.2 19.8 .314 148
2020 05 26 13  15 04 37.437   -18 09 41.05  .05575 1.0667 163.4 19.8 .317 147
2020 05 26 14  15 05 24.836   -18 06 35.23  .05569 1.0667 163.5 19.8 .320 145
2020 05 26 15  15 06 12.315   -18 03 28.31  .05563 1.0667 163.6 19.8 .324 143
2020 05 26 16  15 06 59.873   -18 00 20.28  .05557 1.0667 163.7 19.8 .328 142
2020 05 26 17  15 07 47.509   -17 57 11.15  .05551 1.0667 163.9 19.8 .332 140
2020 05 26 18  15 08 35.222   -17 54 00.92  .05545 1.0666 164.0 19.8 .337 138
2020 05 26 19  15 09 23.010   -17 50 49.59  .05540 1.0666 164.1 19.8 .342 136
2020 05 26 20  15 10 10.872   -17 47 37.16  .05534 1.0666 164.3 19.7 .347 135
2020 05 26 21  15 10 58.808   -17 44 23.64  .05529 1.0666 164.4 19.7 .353 133
2020 05 26 22  15 11 46.817   -17 41 09.02  .05523 1.0666 164.5 19.7 .360 131
2020 05 26 23  15 12 34.896   -17 37 53.31  .05518 1.0666 164.6 19.7 .366 129
2020 05 27 00  15 13 23.045   -17 34 36.52  .05512 1.0666 164.8 19.7 .373 128
2020 05 27 01  15 14 11.263   -17 31 18.64  .05507 1.0665 164.9 19.7 .381 126
2020 05 27 02  15 14 59.549   -17 27 59.67  .05502 1.0665 165.0 19.7 .389 124
2020 05 27 03  15 15 47.901   -17 24 39.63  .05497 1.0665 165.2 19.7 .398 123
2020 05 27 04  15 16 36.319   -17 21 18.51  .05492 1.0665 165.3 19.7 .407 121
2020 05 27 05  15 17 24.800   -17 17 56.31  .05487 1.0665 165.4 19.7 .416 120
2020 05 27 06  15 18 13.344   -17 14 33.05  .05482 1.0665 165.5 19.7 .426 118
2020 05 27 07  15 19 01.950   -17 11 08.72  .05477 1.0665 165.7 19.7 .436 117
2020 05 27 08  15 19 50.616   -17 07 43.33  .05472 1.0665 165.8 19.7 .447 115
2020 05 27 09  15 20 39.341   -17 04 16.88  .05468 1.0664 165.9 19.7 .458 114
2020 05 27 10  15 21 28.124   -17 00 49.38  .05463 1.0664 166.0 19.7 .470 113
2020 05 27 11  15 22 16.964   -16 57 20.82  .05458 1.0664 166.2 19.7 .482 111
2020 05 27 12  15 23 05.859   -16 53 51.22  .05454 1.0664 166.3 19.6 .495 110
2020 05 27 13  15 23 54.808   -16 50 20.58  .05450 1.0664 166.4 19.6 .508 109
2020 05 27 14  15 24 43.809   -16 46 48.90  .05445 1.0664 166.5 19.6 .521 108